TimePDT,TemperatureF,Dew PointF,Humidity,Sea Level PressureIn,VisibilityMPH,Wind Direction,Wind SpeedMPH,Gust SpeedMPH,PrecipitationIn,Events,Conditions,WindDirDegrees,DateUTC
12:15 AM,32.0,28.4,87,30.30,10.0,Calm,Calm,-,N/A,,Clear,0,2013-03-15 07:15:00
12:35 AM,32.0,28.4,87,30.30,10.0,Calm,Calm,-,N/A,,Clear,0,2013-03-15 07:35:00
12:55 AM,30.2,26.6,86,30.29,10.0,Calm,Calm,-,N/A,,Clear,0,2013-03-15 07:55:00
1:15 AM,28.4,26.6,93,30.28,10.0,WSW,3.5,-,N/A,,Clear,250,2013-03-15 08:15:00
1:35 AM,30.2,26.6,86,30.28,10.0,NE,3.5,-,N/A,,Clear,40,2013-03-15 08:35:00
1:55 AM,26.6,24.8,93,30.28,10.0,Calm,Calm,-,N/A,,Clear,0,2013-03-15 08:55:00
2:15 AM,26.6,26.6,100,30.28,10.0,SW,3.5,-,N/A,,Clear,230,2013-03-15 09:15:00
2:35 AM,30.2,28.4,93,30.28,10.0,Calm,Calm,-,N/A,,Clear,0,2013-03-15 09:35:00
2:55 AM,26.6,24.8,93,30.28,10.0,Calm,Calm,-,N/A,,Clear,0,2013-03-15 09:55:00
3:15 AM,28.4,26.6,93,30.28,10.0,Calm,Calm,-,N/A,,Clear,0,2013-03-15 10:15:00
3:35 AM,26.6,24.8,93,30.27,10.0,East,3.5,-,N/A,,Clear,100,2013-03-15 10:35:00
3:55 AM,24.8,24.8,100,30.27,10.0,SW,3.5,-,N/A,,Clear,230,2013-03-15 10:55:00
4:15 AM,26.6,24.8,93,30.26,10.0,Calm,Calm,-,N/A,,Clear,0,2013-03-15 11:15:00
4:35 AM,26.6,24.8,93,30.26,10.0,Calm,Calm,-,N/A,,Clear,0,2013-03-15 11:35:00
4:55 AM,26.6,24.8,93,30.27,10.0,Calm,Calm,-,N/A,,Clear,0,2013-03-15 11:55:00
5:15 AM,24.8,24.8,100,30.26,10.0,ESE,3.5,-,N/A,,Clear,110,2013-03-15 12:15:00
5:35 AM,24.8,24.8,100,30.27,10.0,Calm,Calm,-,N/A,,Clear,0,2013-03-15 12:35:00
5:55 AM,26.6,24.8,93,30.27,10.0,Calm,Calm,-,N/A,,Clear,0,2013-03-15 12:55:00
6:15 AM,24.8,23.0,93,30.26,10.0,Calm,Calm,-,N/A,,Clear,0,2013-03-15 13:15:00
6:35 AM,24.8,23.0,93,30.25,10.0,Calm,Calm,-,N/A,,Clear,0,2013-03-15 13:35:00
6:50 AM,24.8,24.8,100,30.25,10.0,Calm,Calm,-,N/A,,Mostly Cloudy,0,2013-03-15 13:50:00
7:55 AM,26.6,24.8,93,30.27,10.0,Calm,Calm,-,N/A,,Mostly Cloudy,0,2013-03-15 14:55:00
8:55 AM,32.0,28.4,87,30.27,10.0,Calm,Calm,-,N/A,,Clear,0,2013-03-15 15:55:00
9:45 AM,32.0,28.4,87,30.28,10.0,Calm,Calm,-,N/A,,Clear,0,2013-03-15 16:45:00
10:50 AM,41.0,26.6,57,30.25,10.0,Calm,Calm,-,N/A,,Clear,0,2013-03-15 17:50:00
11:45 AM,46.4,32.0,57,30.23,10.0,Calm,Calm,-,N/A,,Clear,0,2013-03-15 18:45:00
12:45 PM,57.2,21.2,25,30.22,10.0,Calm,Calm,-,N/A,,Clear,0,2013-03-15 19:45:00
1:45 PM,60.8,19.4,20,30.20,10.0,WSW,6.9,-,N/A,,Clear,250,2013-03-15 20:45:00
2:55 PM,60.8,17.6,19,30.17,10.0,West,8.1,-,N/A,,Clear,260,2013-03-15 21:55:00
4:45 PM,59.0,23.0,25,30.18,10.0,WSW,12.7,-,N/A,,Mostly Cloudy,250,2013-03-15 23:45:00
5:55 PM,55.4,23.0,29,30.18,10.0,West,9.2,-,N/A,,Clear,270,2013-03-16 00:55:00
6:15 PM,53.6,24.8,33,30.18,10.0,WSW,9.2,-,N/A,,Clear,250,2013-03-16 01:15:00
6:35 PM,53.6,26.6,35,30.19,10.0,West,6.9,-,N/A,,Clear,260,2013-03-16 01:35:00
6:55 PM,53.6,26.6,35,30.19,10.0,Calm,Calm,-,N/A,,Clear,0,2013-03-16 01:55:00
7:15 PM,50.0,26.6,40,30.19,10.0,WSW,6.9,-,N/A,,Clear,240,2013-03-16 02:15:00
7:35 PM,50.0,26.6,40,30.19,10.0,Calm,Calm,-,N/A,,Clear,0,2013-03-16 02:35:00
7:55 PM,44.6,28.4,53,30.19,10.0,West,4.6,-,N/A,,Clear,260,2013-03-16 02:55:00
8:15 PM,41.0,26.6,57,30.19,10.0,East,3.5,-,N/A,,Clear,100,2013-03-16 03:15:00
8:35 PM,39.2,28.4,65,30.19,10.0,SE,6.9,-,N/A,,Clear,140,2013-03-16 03:35:00
8:55 PM,37.4,28.4,70,30.19,10.0,Calm,Calm,-,N/A,,Partly Cloudy,0,2013-03-16 03:55:00
9:15 PM,37.4,26.6,65,30.19,10.0,Calm,Calm,-,N/A,,Partly Cloudy,0,2013-03-16 04:15:00
9:35 PM,37.4,28.4,70,30.20,10.0,South,3.5,-,N/A,,Mostly Cloudy,180,2013-03-16 04:35:00
9:55 PM,35.6,28.4,75,30.20,10.0,South,3.5,-,N/A,,Scattered Clouds,170,2013-03-16 04:55:00
10:15 PM,35.6,26.6,70,30.19,10.0,SSE,5.8,-,N/A,,Clear,150,2013-03-16 05:15:00
10:35 PM,35.6,26.6,70,30.19,10.0,NW,6.9,-,N/A,,Partly Cloudy,310,2013-03-16 05:35:00
10:55 PM,37.4,26.6,65,30.19,10.0,ESE,6.9,-,N/A,,Partly Cloudy,120,2013-03-16 05:55:00
11:15 PM,35.6,26.6,70,30.18,10.0,Calm,Calm,-,N/A,,Clear,0,2013-03-16 06:15:00
11:35 PM,33.8,26.6,75,30.18,10.0,South,3.5,-,N/A,,Clear,190,2013-03-16 06:35:00
11:55 PM,33.8,26.6,75,30.19,10.0,Calm,Calm,-,N/A,,Clear,0,2013-03-16 06:55:00